When you browse on this site, cookies collect data to enhance your experience and personalize the content and advertising you see.
Visit our Privacy Policy to learn more. By continuing to use the site, you agree to this use of cookies and data.
  • Em Portugal
  • Lista de países
  • Para 7 dias
  • Temperatura da água
  • Mapas de satélite
  • Mapa do tempo
  • Widgets de tempo
  • user-avatar
    Iniciar Sessão

    Previsão horária em Mutare

    Hoje, 25 Maio, Sábado

    Tempo Temperatura Precipitação Vento Pressão Humidade
    00:00 +14°C° 0.1 mm 1 m/s 657 mmHg 96%
    01:00 +14°C° 0.1 mm 1 m/s 657 mmHg 96%
    02:00 +13°C° 0 mm 1 m/s 657 mmHg 97%
    03:00 +13°C° 0 mm 1 m/s 657 mmHg 97%
    04:00 +12°C° 0 mm 1 m/s 656 mmHg 98%
    05:00 +12°C° 0 mm 1 m/s 656 mmHg 98%
    06:00 +13°C° 0 mm 1 m/s 657 mmHg 95%
    07:00 +13°C° 0 mm 1 m/s 657 mmHg 91%
    08:00 +15°C° 0 mm 1 m/s 658 mmHg 85%
    09:00 +18°C° 0 mm 1 m/s 658 mmHg 71%
    10:00 +20°C° 0 mm 1 m/s 659 mmHg 57%
    11:00 +21°C° 0 mm 2 m/s 659 mmHg 43%
    12:00 +21°C° 0 mm 2 m/s 659 mmHg 41%
    13:00 +23°C° 0 mm 2 m/s 658 mmHg 38%
    14:00 +23°C° 0 mm 2 m/s 658 mmHg 36%
    15:00 +21°C° 0 mm 2 m/s 657 mmHg 42%
    16:00 +20°C° 0 mm 2 m/s 657 mmHg 48%
    17:00 +18°C° 0 mm 2 m/s 656 mmHg 54%
    18:00 +16°C° 0 mm 1 m/s 656 mmHg 64%
    19:00 +15°C° 0 mm 1 m/s 656 mmHg 75%
    20:00 +13°C° 0 mm 1 m/s 656 mmHg 85%
    21:00 +12°C° 0 mm 1 m/s 656 mmHg 89%
    22:00 +12°C° 0 mm 1 m/s 656 mmHg 92%
    23:00 +12°C° 0 mm 1 m/s 656 mmHg 96%

    Amanhã, 26 Maio, Domingo

    Tempo Temperatura Precipitação Vento Pressão Humidade
    00:00 +12°C° 0 mm 1 m/s 656 mmHg 96%
    01:00 +11°C° 0 mm 1 m/s 656 mmHg 97%
    02:00 +11°C° 0 mm 1 m/s 656 mmHg 98%
    03:00 +10°C° 0 mm 0 m/s 656 mmHg 98%
    04:00 +10°C° 0 mm 0 m/s 656 mmHg 97%
    05:00 +11°C° 0 mm 0 m/s 656 mmHg 97%
    06:00 +12°C° 0 mm 0 m/s 656 mmHg 92%
    07:00 +13°C° 0 mm 0 m/s 657 mmHg 87%
    08:00 +14°C° 0 mm 0 m/s 657 mmHg 82%
    09:00 +16°C° 0 mm 1 m/s 657 mmHg 73%
    10:00 +19°C° 0 mm 1 m/s 658 mmHg 65%
    11:00 +20°C° 0 mm 1 m/s 658 mmHg 56%
    12:00 +21°C° 0.1 mm 1 m/s 658 mmHg 53%
    13:00 +21°C° 0.1 mm 1 m/s 657 mmHg 50%
    14:00 +22°C° 0.1 mm 1 m/s 657 mmHg 47%
    15:00 +21°C° 0.1 mm 1 m/s 656 mmHg 52%
    16:00 +19°C° 0.1 mm 1 m/s 656 mmHg 58%
    17:00 +18°C° 0.1 mm 1 m/s 655 mmHg 63%
    18:00 +16°C° 0 mm 1 m/s 655 mmHg 70%
    19:00 +14°C° 0 mm 1 m/s 655 mmHg 77%
    20:00 +12°C° 0 mm 1 m/s 655 mmHg 84%
    21:00 +11°C° 0 mm 0 m/s 655 mmHg 86%
    22:00 +10°C° 0 mm 0 m/s 655 mmHg 88%
    23:00 +10°C° 0 mm 0 m/s 655 mmHg 89%

    Depois de amanhã, 27 Maio, Segunda-feira

    Tempo Temperatura Precipitação Vento Pressão Humidade
    00:00 +9°C° 0 mm 0 m/s 655 mmHg 89%
    01:00 +9°C° 0 mm 0 m/s 654 mmHg 89%
    02:00 +9°C° 0 mm 0 m/s 654 mmHg 89%
    03:00 +8°C° 0 mm 0 m/s 654 mmHg 89%
    04:00 +8°C° 0 mm 0 m/s 654 mmHg 89%
    05:00 +8°C° 0 mm 0 m/s 654 mmHg 89%
    06:00 +10°C° 0 mm 0 m/s 655 mmHg 80%
    07:00 +12°C° 0 mm 0 m/s 656 mmHg 71%
    08:00 +13°C° 0 mm 0 m/s 657 mmHg 62%
    09:00 +16°C° 0 mm 0 m/s 657 mmHg 53%
    10:00 +20°C° 0 mm 1 m/s 658 mmHg 45%
    11:00 +22°C° 0 mm 1 m/s 658 mmHg 36%
    12:00 +23°C° 0 mm 2 m/s 658 mmHg 35%
    13:00 +23°C° 0 mm 2 m/s 657 mmHg 34%
    14:00 +24°C° 0 mm 2 m/s 656 mmHg 32%
    15:00 +21°C° 0 mm 2 m/s 656 mmHg 39%
    16:00 +19°C° 0 mm 2 m/s 655 mmHg 45%
    17:00 +18°C° 0 mm 2 m/s 655 mmHg 52%
    18:00 +16°C° 0 mm 1 m/s 655 mmHg 63%
    19:00 +14°C° 0 mm 1 m/s 654 mmHg 73%
    20:00 +12°C° 0 mm 1 m/s 654 mmHg 84%
    21:00 +12°C° 0 mm 1 m/s 654 mmHg 88%
    22:00 +11°C° 0 mm 1 m/s 655 mmHg 91%
    23:00 +11°C° 0 mm 1 m/s 655 mmHg 94%

    28 Maio, Terça-feira

    Tempo Temperatura Precipitação Vento Pressão Humidade
    00:00 +11°C° 0 mm 1 m/s 654 mmHg 95%
    01:00 +9°C° 0 mm 0 m/s 654 mmHg 95%
    02:00 +9°C° 0 mm 0 m/s 654 mmHg 96%
    03:00 +9°C° 0 mm 0 m/s 654 mmHg 96%
    04:00 +9°C° 0 mm 0 m/s 654 mmHg 96%
    05:00 +8°C° 0 mm 0 m/s 654 mmHg 96%
    06:00 +10°C° 0 mm 0 m/s 655 mmHg 88%
    07:00 +12°C° 0 mm 0 m/s 656 mmHg 81%
    08:00 +14°C° 0 mm 0 m/s 656 mmHg 73%
    09:00 +16°C° 0 mm 0 m/s 657 mmHg 61%
    10:00 +21°C° 0 mm 1 m/s 657 mmHg 48%
    11:00 +24°C° 0 mm 1 m/s 658 mmHg 36%
    12:00 +24°C° 0 mm 1 m/s 657 mmHg 34%
    13:00 +24°C° 0 mm 1 m/s 657 mmHg 32%
    14:00 +25°C° 0 mm 2 m/s 656 mmHg 31%
    15:00 +23°C° 0 mm 2 m/s 655 mmHg 38%
    16:00 +20°C° 0 mm 2 m/s 655 mmHg 45%
    17:00 +19°C° 0 mm 2 m/s 654 mmHg 52%
    18:00 +18°C° 0 mm 1 m/s 654 mmHg 62%
    19:00 +15°C° 0 mm 1 m/s 654 mmHg 73%
    20:00 +13°C° 0 mm 1 m/s 654 mmHg 83%
    21:00 +13°C° 0 mm 1 m/s 654 mmHg 87%
    22:00 +12°C° 0 mm 1 m/s 654 mmHg 91%
    23:00 +12°C° 0 mm 1 m/s 654 mmHg 95%

    29 Maio, Quarta-feira

    Tempo Temperatura Precipitação Vento Pressão Humidade
    00:00 +11°C° 0 mm 1 m/s 654 mmHg 96%
    01:00 +11°C° 0 mm 1 m/s 654 mmHg 96%
    02:00 +11°C° 0 mm 1 m/s 653 mmHg 97%
    03:00 +11°C° 0 mm 1 m/s 653 mmHg 97%
    04:00 +10°C° 0 mm 0 m/s 653 mmHg 97%
    05:00 +10°C° 0 mm 0 m/s 653 mmHg 98%
    06:00 +11°C° 0 mm 0 m/s 654 mmHg 91%
    07:00 +13°C° 0 mm 0 m/s 655 mmHg 85%
    08:00 +14°C° 0 mm 0 m/s 656 mmHg 79%
    09:00 +17°C° 0 mm 0 m/s 657 mmHg 67%
    10:00 +21°C° 0 mm 1 m/s 657 mmHg 56%
    11:00 +24°C° 0 mm 1 m/s 658 mmHg 45%
    12:00 +23°C° 0 mm 1 m/s 657 mmHg 44%
    13:00 +23°C° 0 mm 1 m/s 656 mmHg 43%
    14:00 +23°C° 0 mm 1 m/s 655 mmHg 42%
    15:00 +22°C° 0.1 mm 1 m/s 655 mmHg 50%
    16:00 +20°C° 0.1 mm 1 m/s 654 mmHg 58%
    17:00 +19°C° 0.1 mm 1 m/s 654 mmHg 66%
    18:00 +16°C° 0.1 mm 1 m/s 654 mmHg 74%
    19:00 +15°C° 0.1 mm 1 m/s 654 mmHg 81%
    20:00 +14°C° 0.1 mm 1 m/s 654 mmHg 89%
    21:00 +13°C° 0 mm 1 m/s 654 mmHg 91%
    22:00 +13°C° 0 mm 1 m/s 654 mmHg 93%
    23:00 +12°C° 0 mm 1 m/s 654 mmHg 95%

    30 Maio, Quinta-feira

    Tempo Temperatura Precipitação Vento Pressão Humidade
    00:00 +12°C° 0 mm 1 m/s 654 mmHg 95%
    01:00 +12°C° 0 mm 1 m/s 653 mmHg 96%
    02:00 +10°C° 0 mm 0 m/s 653 mmHg 96%
    03:00 +10°C° 0 mm 0 m/s 653 mmHg 96%
    04:00 +10°C° 0 mm 0 m/s 653 mmHg 96%
    05:00 +9°C° 0 mm 0 m/s 653 mmHg 96%
    06:00 +11°C° 0 mm 0 m/s 654 mmHg 90%
    07:00 +12°C° 0 mm 0 m/s 655 mmHg 84%
    08:00 +14°C° 0 mm 0 m/s 656 mmHg 78%
    09:00 +17°C° 0 mm 0 m/s 656 mmHg 65%
    10:00 +20°C° 0 mm 0 m/s 657 mmHg 53%
    11:00 +23°C° 0 mm 0 m/s 657 mmHg 40%
    12:00 +25°C° 0 mm 1 m/s 656 mmHg 38%
    13:00 +24°C° 0 mm 1 m/s 655 mmHg 36%
    14:00 +24°C° 0 mm 1 m/s 655 mmHg 35%
    15:00 +23°C° 0 mm 1 m/s 654 mmHg 39%
    16:00 +21°C° 0 mm 1 m/s 654 mmHg 43%
    17:00 +19°C° 0 mm 1 m/s 653 mmHg 47%
    18:00 +18°C° 0 mm 1 m/s 653 mmHg 53%
    19:00 +15°C° 0 mm 1 m/s 653 mmHg 59%
    20:00 +13°C° 0 mm 1 m/s 653 mmHg 65%
    21:00 +13°C° 0 mm 1 m/s 653 mmHg 69%
    22:00 +12°C° 0 mm 1 m/s 653 mmHg 74%
    23:00 +12°C° 0 mm 1 m/s 653 mmHg 79%
    Mostrar mais